Regional Weather Roundup
Issued by NWS

Home | Current Version | Previous Version | Text Only | Print | Product List | Glossary On
Versions: 1 2 3 4 5 6 7 8 9 10 11 12 13 14 15 16 17 18 19 20 21 22 23 24 25 26 27 28 29 30 31 32 33 34 35 36 37 38 39 40 41 42 43 44 45 46 47 48 49 50
000
ASUS44 KLUB 080301
RWRTX
WEST TEXAS WEATHER ROUNDUP
NATIONAL WEATHER SERVICE LUBBOCK TX
900 PM CST WED DEC 07 2016

NOTE: "FAIR" INDICATES FEW OR NO CLOUDS BELOW 12,000 FEET WITH NO
SIGNIFICANT WEATHER AND/OR OBSTRUCTIONS TO VISIBILITY.

TXZ004-006>008-010-012-014-016-OKZ002-080400-
TEXAS PANHANDLE/OKLAHOMA PANHANDLE

CITY           SKY/WX    TMP DP  RH WIND       PRES   REMARKS
AMARILLO       CLOUDY    24  17  74 N16       30.37R WCI  11
BORGER         CLOUDY    25  17  72 NE16      30.42R WCI  12
CANADIAN       CLOUDY    26  20  77 N13       30.43R WCI  15
DALHART        CLOUDY    21  15  78 N17       30.40R WCI   7
DUMAS          CLOUDY    21  15  78 N15       30.39R WCI   7
GUYMON         CLOUDY    21  15  78 N17       30.44R WCI   7
HEREFORD       CLOUDY    26  19  77 NE14G22   30.36R WCI  14
PAMPA          CLOUDY    23  18  78 NE17      30.40R WCI  10
PERRYTON       CLOUDY    25  20  81 N16       30.42R WCI  12
$$

TXZ026-029-035-045-048-080400-
SOUTHERN PANHANDLE/SOUTH PLAINS/ROLLING PLAINS

CITY           SKY/WX    TMP DP  RH WIND       PRES   REMARKS
CHILDRESS      CLOUDY    36  19  50 NE13G22   30.38R WCI  27
SEMINOLE       CLOUDY    37  32  82 NE21      30.26R WCI  26
LUBBOCK        CLOUDY    33  25  72 NE17      30.30R WCI  22
PLAINVIEW      CLOUDY    30  20  64 NE18      30.31R WCI  18
SNYDER         CLOUDY    37  31  79 N14G21    30.29R WCI  29
$$

TXZ052-054-060>062-072-078-127-140-154-169-080400-
PERMIAN BASIN/CONCHO VALLEY/BIG COUNTRY/EDWARDS PLATEAU

CITY           SKY/WX    TMP DP  RH WIND       PRES   REMARKS
ABILENE        CLOUDY    42  37  82 N10       30.27R
BIG SPRING     CLOUDY    40  36  85 N20G26    30.27R WCI  30
JUNCTION       CLOUDY    51  47  86 NE10      30.18R
MIDLAND        CLOUDY    41  35  79 NE23      30.21R
ODESSA         CLOUDY    40  34  79 NE23G30   30.21R WCI  30
SAN ANGELO     CLOUDY    46  41  82 NE17      30.22R
WINK           CLOUDY    42  38  85 NE15G25   30.17R
$$

TXZ055-058-074-075-080-082-080400-
FAR WEST/SOUTHWEST MOUNTAINS/TRANS PECOS

CITY           SKY/WX    TMP DP  RH WIND       PRES   REMARKS
ALPINE         CLOUDY    51  33  49 CALM      30.19S
DRYDEN           N/A     46  44  93 E6        30.13R
EL PASO        CLOUDY    53  34  48 CALM      30.08R
FORT STOCKTON  MOCLDY    47  45  93 NE7       30.14R
GUADALUPE PASS CLOUDY    44  34  67 NE26      30.15R
MARFA          CLOUDY    47  30  51 N7        30.15R
PECOS          CLOUDY    45  40  83 NE12      30.19R
$$

TXZ014-016-019-021>030-083-080400
TEXAS TECH WEST TEXAS MESONET/TEXAS PANHANDLE/NORTHERN SOUTH PLAINS

CITY           SKY/WX    TMP DP  RH WIND       PRES   REMARKS
ABERNATHY 5ENE   N/A     32  26  80 NE15      30.34R WCI  21
AMARILLO 9NNE    N/A     24  17  74 N14       30.40R WCI  12
AMARILLO 7SSE    N/A     24  16  70 N14       30.38R WCI  12
AMHERST 1NE      N/A     30  23  74 NE15      30.32R WCI  19
BOOTLEG 11WNW    N/A     21  14  76 N16       30.36R WCI   7
CANADIAN 6E      N/A     24  17  77 N16       30.42R WCI  10
CAPROCK CYN SP   N/A     32  19  58 N13       30.39R WCI  22
CHILDRESS 2NNE   N/A     35  20  56 N14       30.39R WCI  25
CLARENDON 2WSW   N/A     28  17  64 NE17      30.39R WCI  16
CLAUDE 12SW      N/A     24  16  71 N13       30.37R WCI  12
DIMMITT 2NE      N/A     27  17  67 N17       30.34R WCI  14
FLOYDADA 2NNE    N/A     31  19  62 NE17      30.32R WCI  19
FRIONA 2NE       N/A     24  17  73 N21       30.35R WCI  10
GOODLETT 3W      N/A     36  23  60 NE20G26   30.38R WCI  25
HART 3N          N/A     28  19  68 N20       30.34R WCI  15
HEREFORD 2NW     N/A     23  16  75 NE17      30.38R WCI   9
MCLEAN 1E        N/A     26  16  65 N15G24    30.38R WCI  14
MEMPHIS 1NE      N/A     34  20  56 N14       30.39S WCI  24
MULESHOE 2SSW    N/A     29  21  71 NE16G22   30.33R WCI  18
OLTON 6S         N/A     30  23  74 NE16      30.33R WCI  19
PALO DURO SP     N/A     24  15  69 NE8       30.39R WCI  15
PAMPA 2E         N/A     21  16  79 N14G20    30.40R WCI   8
PLAINVIEW 1S     N/A     31  22  69 NE15G21   30.33R WCI  20
SILVERTON 7ESE   N/A     29  16  56 N17       30.35R WCI  18
TULIA 2ENE       N/A     28  19  68 N15G21    30.36R WCI  16
TURKEY 2WSW      N/A     33  20  59 N17G23    30.39R WCI  22
UMBARGER 3NNE    N/A     23  16  75 NE13      30.38R WCI  11
$$

TXZ033>036-039>041-045>048-080400
TEXAS TECH WEST TEXAS MESONET/SOUTH PLAINS

CITY           SKY/WX    TMP DP  RH WIND       PRES   REMARKS
AIKEN 3WSW       N/A     31  21  67 NE16      30.34R WCI  20
ANDREWS 2NE      N/A     38  32  80 NE17G25   30.25R WCI  28
ANTON 6SSW       N/A     32  26  81 NE14      30.32R WCI  22
BROWNFIELD 2S    N/A     32  27  82 NE17      30.30R WCI  21
DENVR CTY 7WNW   N/A     33  27  76 NE18G25   30.26R WCI  22
GAIL 2ESE        N/A     37  30  75 NE15      30.29R WCI  28
LAMESA 2SE       N/A     36  31  83 NE10G17   30.28R WCI  28
LEVELLAND 4S     N/A     32  25  75 NE18      30.31R WCI  20
LUBBOCK 3WNW     N/A     33  27  76 NE14      30.33R WCI  24
MORTON 1ENE      N/A     31  23  72 NE15      30.31R WCI  20
ODONNELL 1N      N/A     34  30  84 NE18      30.29R WCI  23
PLAINS 3N        N/A     32  26  76 NE20G25   30.28R WCI  20
RALLS 1SE        N/A     33  25  71 NE13      30.33R WCI  24
REESE CENTER     N/A     32  26  78 NE16      30.32R WCI  21
SEAGRAVES 1SW    N/A     35  29  80 NE12G20   30.28R WCI  26
SEMINOLE 2NNE    N/A     37  30  78 NE18      30.25S WCI  26
SLATON 2NE       N/A     34  27  76 N16G22    30.32R WCI  23
SNYDER 3E        N/A     37  32  82 N17G25    30.28R WCI  27
SUNDOWN 8SW      N/A     32  26  77 NE15      30.29R WCI  22
TAHOKA 3NNE      N/A     34  28  78 NE17      30.30R WCI  24
WOLFFORTH 6SSW   N/A     33  26  76 NE16      30.31R WCI  23
$$

TXZ031-032-036>038-042>044-080400-
TEXAS TECH WEST TEXAS MESONET/ROLLING PLAINS

CITY           SKY/WX    TMP DP  RH WIND       PRES   REMARKS
ASPERMONT 3NE    N/A     40  29  64 N15G23    30.33R WCI  32
FLUVANNA 3WNW    N/A     35  29  79 N15G21    30.29R WCI  25
GRAHAM 5SSW      N/A     34  28  77 NE18      30.30R WCI  23
GUTHRIE 10WSW    N/A     37  22  55 N14G20    30.34R WCI  28
HASKELL 1NW      N/A     39  29  66 N18       30.32R WCI  29
JAYTON 1SSE      N/A     39  29  68 N10G18    30.32R WCI  32
KNOX CITY 3NW    N/A     39  26  58 N14       30.35R WCI  31
LK A HENRY 1NW   N/A     38  28  68 NE12      30.32R WCI  30
NORTHFIELD 1S    N/A     35  21  57 NE13      30.39R WCI  26
ODELL 4ENE       N/A     35  25  67 N13G21    30.40R WCI  26
PADUCAH 10SW     N/A     36  22  57 N18       30.36R WCI  25
POST 1NE         N/A     36  26  67 NE14      30.32R WCI  27
RRING SPRGS 3N   N/A     33  21  60 NE17G26   30.35R WCI  22
SEYMOUR 3NW      N/A     39  25  58 N21       30.36R WCI  29
SPUR 1W          N/A     37  26  65 NE14G22   30.33R WCI  28
WEINERT 2NNE     N/A     39  26  59 N17G24    30.34R WCI  29
WHITE RVR 6NE    N/A     35  25  65 N18G24    30.32R WCI  25
$$

TXZ052-054-060>062-072-078-127-140-154-169-080400-
TEXAS TECH WEST TEXAS MESONET/PERMIAN BASIN/
CONCHO VALLEY/BIG COUNTRY/EDWARDS PLATEAU

CITY           SKY/WX    TMP DP  RH WIND       PRES   REMARKS
COYANOSA 2N      N/A     46  42  87 NE7       30.20R
JUNCTION 1SSW    N/A     51  47  89 NE8       30.20R
MERTZON 3NNE     N/A     44  41  88 NE13      30.24R
SAN ANGELO 7NW   N/A     43  39  84 NE9G16    30.24R
STRLNG CT 4WSW   N/A     40  37  86 N10       30.27R WCI  34
ST LAWRNCE 5SW   N/A     40  38  91 NE20      30.22R WCI  31
SWEETWATR 11SW   N/A     38  34  86 NE14      30.29R WCI  29
WALL 1E          N/A     43  40  89 N18       30.26R
$$

TXZ055-058-074-075-080-082-080400-
TEXAS TECH WEST TEXAS MESONET/FAR WEST/SOUTHWEST MOUNTAINS/TRANS PECOS

CITY           SKY/WX    TMP DP  RH WIND       PRES   REMARKS
PRSMN GAP BBNP   N/A     50  45  81 N23       30.09R
GUADLPE MTN NP   N/A     43  32  65 E6        30.18R
$$




USA.gov is the U.S. government's official web portal to all federal, state and local government web resources and services.